Danvers, MA

6:56 PM EDT on August 24, 2016 (GMT -0400)
Beverly Municipal

Weather History for KBVY - January, 2014

Change the Weather History Date:

Thursday, January 30, 2014

  Actual Average Record
Temperature  
Mean Temperature 20 °F -  
Max Temperature 28 °F 32 °F 42 °F (2016)
Min Temperature 12 °F 16 °F 12 °F (2014)
Degree Days  
Heating Degree Days 45    
Moisture  
Dew Point 3 °F    
Average Humidity 47    
Maximum Humidity 65    
Minimum Humidity 35    
Precipitation  
Precipitation 0.00 in - - ()
Sea Level Pressure  
Sea Level Pressure 30.31 in    
Wind  
Wind Speed 8 mph (SW)    
Max Wind Speed 12 mph    
Max Gust Speed -    
Visibility 10 miles    
Events      
Averages and records for this station are not official NWS values.
T = Trace of Precipitation, MM = Missing Value Source: NWS Daily Summary

Daily Weather History Graph

Daily Weather History Graph

Search for Another Location

Airport or City:

Trip Planner

Search our weather history database for the weather conditions in past years. The results will help you decide how hot, cold, wet, or windy it might be!

Date:

Astronomy

Jan. 30, 2014 Rise Set
Actual Time 6:59 AM EST 4:54 PM EST
Civil Twilight 6:29 AM EST 5:24 PM EST
Nautical Twilight 5:55 AM EST 5:58 PM EST
Astronomical Twilight 5:22 AM EST 6:31 PM EST
Moon 6:22 AM EST (1/30) 5:04 PM EST (1/30)
Length of Visible Light 10h 54m
Length of Day
9h 54m
Waning Crescent, 0% of the Moon is Illuminated
Jan 30
Waning Crescent
Jan 30
New
Feb 6
First Quarter
Feb 14
Full
Feb 22
Last Quarter

Hourly Weather History & Observations

Time (EST) Temp. Windchill Dew Point Humidity Pressure Visibility Wind Dir Wind Speed Gust Speed Precip Events Conditions
12:53 AM 17.1 °F 5.8 °F -5.1 °F 37% 30.22 in 10.0 mi West 9.2 mph - N/A   Clear
1:53 AM 15.1 °F 6.4 °F -4.0 °F 43% 30.25 in 10.0 mi West 5.8 mph - N/A   Clear
2:53 AM 12.9 °F 1.6 °F -2.9 °F 49% 30.27 in 10.0 mi SW 8.1 mph - N/A   Clear
3:53 AM 12.9 °F 3.8 °F -2.9 °F 49% 30.30 in 10.0 mi SW 5.8 mph - N/A   Clear
4:53 AM 12.0 °F 2.7 °F -2.0 °F 53% 30.32 in 10.0 mi WSW 5.8 mph - N/A   Clear
5:53 AM 12.9 °F 3.8 °F -2.0 °F 51% 30.34 in 10.0 mi West 5.8 mph - N/A   Clear
6:53 AM 12.0 °F 1.5 °F -0.9 °F 56% 30.37 in 10.0 mi SW 6.9 mph - N/A   Clear
7:53 AM 16.0 °F 5.3 °F -0.9 °F 47% 30.40 in 10.0 mi West 8.1 mph - N/A   Clear
8:53 AM 18.0 °F 6.1 °F 1.0 °F 48% 30.42 in 10.0 mi WNW 10.4 mph - N/A   Clear
9:53 AM 21.0 °F 9.3 °F 1.9 °F 44% 30.41 in 10.0 mi West 11.5 mph - N/A   Clear
10:53 AM 23.0 °F 14.7 °F 1.9 °F 40% 30.41 in 10.0 mi West 6.9 mph - N/A   Clear
11:53 AM 25.0 °F 17.1 °F 3.0 °F 39% 30.38 in 10.0 mi WSW 6.9 mph - N/A   Clear
12:53 PM 27.0 °F 18.0 °F 3.9 °F 37% 30.35 in 10.0 mi SW 9.2 mph - N/A   Unknown
1:53 PM 28.0 °F 20.8 °F 3.9 °F 36% 30.34 in 10.0 mi WSW 6.9 mph - N/A   Unknown
2:53 PM 28.9 °F 19.2 °F 3.9 °F 35% 30.33 in 10.0 mi SW 11.5 mph - N/A   Clear
3:53 PM 28.9 °F 21.9 °F 5.0 °F 36% 30.32 in 10.0 mi SW 6.9 mph - N/A   Clear
4:53 PM 27.0 °F 21.6 °F 3.9 °F 37% 30.30 in 10.0 mi South 4.6 mph - N/A   Clear
5:53 PM 26.1 °F 18.4 °F 7.0 °F 44% 30.29 in 10.0 mi South 6.9 mph - N/A   Clear
6:53 PM 25.0 °F 16.3 °F 7.0 °F 46% 30.29 in 10.0 mi SSW 8.1 mph - N/A   Clear
7:53 PM 24.1 °F 13.7 °F 8.1 °F 51% 30.26 in 10.0 mi South 10.4 mph - N/A   Clear
8:53 PM 21.9 °F 12.5 °F 9.0 °F 58% 30.25 in 10.0 mi SSW 8.1 mph - N/A   Clear
9:53 PM 21.0 °F 14.6 °F 8.1 °F 57% 30.24 in 10.0 mi South 4.6 mph - N/A   Clear
10:53 PM 21.0 °F 11.4 °F 10.9 °F 65% 30.22 in 10.0 mi SSW 8.1 mph - N/A   Clear
11:53 PM 21.9 °F 13.4 °F 10.9 °F 63% 30.19 in 10.0 mi SSW 6.9 mph - N/A   Clear